Cloud_Cover
100 100 33 25 5 5 12 5 30 75 69 100 100 7 90 100 95 98 22 100 100 22 62 0 3 11 8 4 28 20 21 19 14 16 14 20 19 3 5 5 0 0 0 4 1 8 11 11 20
100 100 96 98 43 5 54 71 58 100 100 100 91 5 45 100 100 9 10 96 50 0 0 0 0 0 0 0 0 0 0 0 5 26 20 17 5 2 3 3 0 0 0 10 1 5 51 30 53
88 100 100 50 54 32 97 59 12 100 100 99 49 38 96 100 91 3 5 5 0 0 0 5 4 0 0 0 0 0 0 0 0 0 0 0 2 10 19 15 0 0 0 0 10 5 7 1 0
5 1 84 100 21 90 94 7 5 80 100 100 97 61 59 63 32 5 5 5 5 4 5 5 12 12 2 0 0 0 0 0 0 0 0 0 0 0 0 0 1 5 0 8 6 17 0 0 0
0 0 5 5 100 100 85 6 78 100 100 79 24 72 58 73 72 22 6 5 60 5 6 5 7 5 5 0 0 0 0 0 0 0 0 0 0 0 0 0 0 0 5 10 13 11 0 0 0
0 0 0 2 53 100 100 74 100 100 100 99 96 11 27 65 50 96 86 6 12 36 48 63 5 5 5 0 0 0 0 0 0 0 0 0 0 0 0 0 0 0 0 0 0 0 0 1 3
4 3 0 0 0 3 97 100 100 100 100 98 56 30 97 88 100 100 100 99 48 99 100 10 5 2 3 0 0 0 0 0 0 0 0 0 0 0 0 0 0 0 0 0 0 2 2 1 0
5 4 0 0 5 4 5 98 96 100 100 100 91 100 93 91 100 100 100 100 100 100 17 26 5 0 0 0 0 0 0 0 0 0 0 0 0 0 0 0 0 0 0 0 0 0 0 0 0
0 0 0 0 5 12 5 20 59 91 100 91 58 97 100 100 99 100 100 100 100 54 6 5 5 2 0 3 12 5 5 5 5 5 1 0 2 0 0 0 0 0 0 0 0 0 0 0 0
0 0 0 2 45 5 67 65 78 100 100 83 5 62 100 100 100 100 80 42 15 5 30 5 5 4 25 36 29 80 5 0 5 2 0 0 0 0 0 0 0 0 0 0 0 0 0 0 0
0 0 0 0 8 5 36 100 100 100 100 100 46 57 99 100 100 98 72 7 5 11 6 5 1 5 6 86 100 51 4 0 0 0 0 0 0 0 0 0 0 0 0 0 0 0 0 0 0
0 5 5 4 0 0 80 94 74 62 71 75 100 47 0 0 4 5 5 100 5 4 48 100 100 100 100 100 8 5 2 0 1 5 0 0 0 0 0 0 0 0 0 0 0 0 0 0 0
2 3 5 2 0 0 4 23 99 7 80 79 85 38 8 3 2 3 9 7 22 99 100 100 100 100 100 100 71 13 2 2 3 0 0 0 0 0 0 0 0 0 0 0 0 0 0 0 0
4 5 5 12 9 4 4 88 100 100 100 41 50 64 71 27 99 73 79 30 49 99 100 100 100 82 5 14 24 6 24 7 0 0 0 0 0 0 0 0 0 0 0 0 0 0 0 0 0
0 1 5 5 6 5 0 9 100 100 100 96 97 100 66 83 98 98 100 100 100 100 100 100 100 96 98 22 5 0 0 0 0 0 0 0 0 0 0 0 0 0 0 0 0 0 0 0 0
0 0 0 0 1 0 0 2 99 100 100 100 100 100 100 100 100 100 100 100 100 99 99 12 7 27 5 5 0 0 0 0 0 0 0 0 0 0 0 0 0 0 0 0 0 0 0 0 0
0 0 0 0 0 0 0 34 99 84 77 98 100 100 100 100 100 100 100 60 30 52 16 5 35 6 1 0 0 0 0 0 0 0 0 0 0 0 0 0 0 0 0 0 0 0 0 0 0
0 0 0 0 0 0 0 0 1 89 100 100 100 100 100 84 100 78 39 22 54 55 65 53 18 5 2 0 0 0 0 0 0 0 0 0 0 0 0 0 0 0 0 0 0 0 0 0 0
0 0 0 0 0 0 0 0 0 4 38 40 100 100 91 32 9 9 26 78 89 100 100 100 29 5 5 0 0 0 0 0 0 0 0 0 0 0 0 0 0 0 0 0 0 0 0 0 0
0 0 0 0 0 0 0 0 0 0 0 0 0 8 31 49 45 84 5 17 43 87 99 20 5 3 2 0 0 0 0 0 0 0 0 0 0 0 0 0 0 0 0 0 0 0 0 0 0
0 0 0 0 0 0 0 0 0 0 0 0 0 0 0 0 0 2 4 50 100 99 16 5 4 5 0 0 0 0 0 0 0 0 0 0 0 0 0 0 0 0 0 0 0 0 0 0 0
0 0 0 0 0 0 0 0 0 0 0 0 0 0 0 0 0 0 0 0 24 12 1 2 0 0 0 0 0 0 0 0 0 0 0 0 0 0 0 0 2 3 5 5 5 0 1 4 5
0 0 0 0 0 0 0 0 0 0 0 0 0 0 0 0 0 0 0 0 0 0 0 0 0 0 0 0 0 0 0 0 0 0 0 0 4 6 1 5 0 4 8 33 44 11 12 92 10
0 0 0 0 0 0 0 0 0 0 0 0 0 0 0 0 0 0 0 0 0 0 0 0 0 0 0 0 0 0 0 0 0 0 2 4 5 5 5 5 7 81 77 30 87 100 100 100 62
0 0 4 1 1 0 0 1 0 0 0 0 0 0 0 0 0 0 0 0 0 0 0 0 0 0 0 0 0 0 0 0 0 0 3 8 98 100 100 100 100 98 71 93 100 100 83 85 18
0 0 0 0 0 1 0 1 0 0 0 0 0 0 0 0 0 0 0 0 0 0 0 0 0 0 0 0 0 0 0 0 0 0 4 5 5 23 94 100 100 100 100 100 100 100 100 100 100
0 0 0 3 5 1 1 0 0 0 0 0 0 0 0 0 0 0 0 0 0 0 0 0 0 0 0 0 0 0 0 0 0 5 12 93 100 76 100 97 100 100 100 37 25 7 14 28 36
0 0 0 3 0 0 2 0 0 0 0 0 0 0 0 0 0 0 0 0 0 0 0 0 0 0 0 0 0 0 0 0 0 5 9 100 100 100 100 100 100 100 100 100 100 100 97 64 48
0 0 0 0 0 0 0 0 0 0 0 0 0 0 0 0 0 0 0 1 0 0 0 0 0 0 0 0 0 0 0 0 5 5 5 21 100 100 96 56 41 48 81 92 100 100 100 99 100
0 0 0 0 0 0 0 0 0 0 0 0 0 0 0 0 0 2 0 0 0 0 0 0 0 0 0 0 0 0 1 13 25 95 100 100 93 24 6 76 100 99 100 98 100 100 72 100 100